QPF
0.00 0.00 0.01 0.00 0.00 0.00 0.00 0.00 0.01 0.01 0.01 0.00 0.01 0.00 0.00 0.00 0.00 0.00 0.00 0.00 0.00 0.00 0.00 0.00 0.00 0.00 0.01 0.00 0.00 0.00 0.00 0.01 0.02 0.04 0.05 0.06 0.05 0.05 0.08 0.06 0.05 0.04 0.04
0.00 0.00 0.01 0.00 0.00 0.00 0.00 0.00 0.01 0.01 0.00 0.01 0.01 0.00 0.00 0.00 0.00 0.00 0.00 0.00 0.00 0.00 0.00 0.00 0.00 0.00 0.00 0.00 0.00 0.00 0.00 0.01 0.02 0.05 0.06 0.07 0.04 0.05 0.06 0.04 0.03 0.03 0.05
0.00 0.00 0.00 0.00 0.00 0.00 0.00 0.00 0.01 0.01 0.01 0.01 0.01 0.00 0.00 0.00 0.00 0.00 0.00 0.00 0.00 0.00 0.00 0.00 0.00 0.00 0.00 0.00 0.00 0.00 0.00 0.01 0.03 0.07 0.07 0.03 0.03 0.06 0.07 0.05 0.03 0.02 0.03
0.00 0.00 0.00 0.00 0.00 0.00 0.00 0.00 0.01 0.01 0.01 0.01 0.01 0.00 0.00 0.00 0.00 0.00 0.00 0.00 0.00 0.00 0.00 0.00 0.00 0.00 0.00 0.00 0.00 0.00 0.00 0.01 0.03 0.05 0.03 0.02 0.01 0.04 0.04 0.04 0.02 0.02 0.02
0.00 0.00 0.00 0.00 0.00 0.00 0.00 0.00 0.00 0.01 0.01 0.01 0.01 0.00 0.00 0.00 0.00 0.00 0.00 0.00 0.00 0.00 0.00 0.00 0.00 0.00 0.00 0.00 0.00 0.00 0.00 0.02 0.04 0.05 0.04 0.04 0.03 0.05 0.03 0.02 0.01 0.01 0.01
0.00 0.00 0.00 0.00 0.00 0.00 0.00 0.00 0.00 0.01 0.01 0.01 0.00 0.00 0.00 0.00 0.00 0.00 0.00 0.01 0.00 0.00 0.00 0.00 0.00 0.00 0.00 0.00 0.00 0.00 0.00 0.02 0.03 0.04 0.04 0.03 0.02 0.04 0.03 0.01 0.00 0.00 0.01
0.00 0.00 0.00 0.00 0.00 0.00 0.00 0.00 0.00 0.00 0.00 0.00 0.00 0.00 0.00 0.00 0.00 0.00 0.00 0.00 0.00 0.00 0.00 0.00 0.00 0.00 0.00 0.00 0.00 0.00 0.00 0.02 0.03 0.04 0.04 0.04 0.02 0.03 0.03 0.01 0.00 0.00 0.00
0.00 0.00 0.00 0.00 0.00 0.00 0.00 0.00 0.00 0.00 0.00 0.00 0.00 0.00 0.00 0.00 0.00 0.00 0.00 0.00 0.00 0.00 0.00 0.00 0.00 0.00 0.00 0.00 0.00 0.00 0.01 0.01 0.02 0.05 0.07 0.05 0.04 0.04 0.02 0.01 0.00 0.01 0.00
0.00 0.00 0.00 0.00 0.00 0.00 0.00 0.00 0.00 0.00 0.00 0.00 0.01 0.01 0.01 0.01 0.01 0.01 0.01 0.01 0.01 0.01 0.01 0.00 0.00 0.00 0.00 0.00 0.00 0.00 0.01 0.02 0.02 0.05 0.09 0.08 0.07 0.05 0.03 0.01 0.00 0.00 0.01
0.01 0.00 0.00 0.00 0.00 0.00 0.00 0.00 0.00 0.00 0.00 0.00 0.01 0.01 0.01 0.01 0.01 0.02 0.02 0.02 0.03 0.03 0.03 0.02 0.01 0.01 0.01 0.01 0.00 0.00 0.01 0.02 0.02 0.03 0.10 0.16 0.13 0.09 0.05 0.02 0.01 0.00 0.01
0.01 0.01 0.00 0.00 0.00 0.00 0.01 0.01 0.01 0.01 0.01 0.01 0.02 0.02 0.02 0.02 0.03 0.04 0.06 0.09 0.09 0.08 0.06 0.04 0.03 0.03 0.03 0.02 0.02 0.01 0.01 0.01 0.01 0.04 0.08 0.18 0.18 0.13 0.09 0.05 0.03 0.02 0.01
0.03 0.02 0.02 0.03 0.02 0.04 0.03 0.03 0.03 0.04 0.04 0.03 0.03 0.03 0.03 0.04 0.05 0.05 0.07 0.12 0.13 0.12 0.09 0.07 0.06 0.05 0.04 0.02 0.03 0.05 0.03 0.03 0.04 0.05 0.08 0.15 0.18 0.17 0.13 0.09 0.05 0.03 0.02
0.05 0.03 0.02 0.03 0.02 0.03 0.03 0.03 0.04 0.06 0.06 0.04 0.04 0.05 0.04 0.05 0.06 0.05 0.05 0.10 0.11 0.11 0.09 0.09 0.07 0.05 0.04 0.04 0.04 0.06 0.06 0.07 0.10 0.08 0.08 0.15 0.20 0.23 0.21 0.13 0.07 0.05 0.04
0.05 0.04 0.04 0.04 0.03 0.03 0.03 0.02 0.03 0.04 0.05 0.04 0.04 0.05 0.04 0.03 0.03 0.03 0.04 0.08 0.06 0.05 0.05 0.06 0.05 0.05 0.05 0.05 0.05 0.05 0.06 0.09 0.16 0.14 0.17 0.24 0.25 0.24 0.22 0.17 0.11 0.07 0.06
0.06 0.05 0.05 0.04 0.03 0.03 0.03 0.03 0.03 0.03 0.03 0.04 0.04 0.04 0.02 0.02 0.02 0.01 0.02 0.02 0.02 0.03 0.03 0.03 0.04 0.05 0.05 0.05 0.04 0.05 0.06 0.08 0.13 0.21 0.30 0.30 0.27 0.25 0.22 0.17 0.13 0.10 0.08
0.07 0.06 0.05 0.05 0.03 0.02 0.03 0.03 0.03 0.02 0.03 0.03 0.05 0.03 0.01 0.01 0.01 0.01 0.02 0.02 0.02 0.02 0.02 0.01 0.01 0.02 0.03 0.03 0.03 0.04 0.05 0.07 0.07 0.12 0.19 0.20 0.21 0.21 0.18 0.16 0.15 0.13 0.10
0.08 0.06 0.05 0.06 0.02 0.02 0.03 0.02 0.02 0.02 0.02 0.02 0.01 0.01 0.01 0.00 0.00 0.00 0.00 0.01 0.00 0.00 0.00 0.00 0.00 0.00 0.01 0.02 0.02 0.03 0.04 0.05 0.06 0.07 0.11 0.14 0.13 0.14 0.15 0.14 0.14 0.16 0.15
0.07 0.06 0.06 0.05 0.03 0.03 0.03 0.02 0.02 0.01 0.01 0.01 0.00 0.00 0.00 0.00 0.00 0.00 0.00 0.00 0.00 0.00 0.00 0.00 0.00 0.00 0.01 0.01 0.01 0.01 0.02 0.03 0.04 0.05 0.05 0.07 0.08 0.07 0.10 0.16 0.15 0.15 0.15
0.08 0.07 0.08 0.07 0.04 0.03 0.03 0.03 0.02 0.01 0.01 0.01 0.01 0.00 0.01 0.00 0.00 0.00 0.00 0.00 0.00 0.00 0.00 0.00 0.00 0.00 0.00 0.00 0.00 0.00 0.01 0.01 0.01 0.03 0.04 0.04 0.05 0.04 0.05 0.10 0.17 0.16 0.15
0.08 0.08 0.07 0.05 0.04 0.02 0.01 0.01 0.01 0.01 0.00 0.00 0.00 0.00 0.00 0.00 0.00 0.00 0.00 0.00 0.00 0.00 0.00 0.00 0.00 0.00 0.00 0.00 0.00 0.00 0.00 0.00 0.00 0.00 0.01 0.02 0.03 0.03 0.04 0.06 0.08 0.11 0.14
0.10 0.09 0.06 0.03 0.01 0.01 0.01 0.00 0.00 0.00 0.00 0.00 0.00 0.00 0.00 0.00 0.00 0.00 0.00 0.00 0.00 0.00 0.00 0.00 0.00 0.00 0.00 0.00 0.00 0.00 0.00 0.00 0.00 0.00 0.00 0.01 0.02 0.05 0.07 0.08 0.08 0.09 0.10
0.09 0.05 0.02 0.01 0.01 0.00 0.00 0.00 0.00 0.00 0.00 0.00 0.00 0.00 0.00 0.00 0.00 0.00 0.00 0.00 0.00 0.00 0.00 0.00 0.00 0.00 0.00 0.00 0.00 0.00 0.00 0.00 0.00 0.00 0.01 0.01 0.02 0.03 0.04 0.04 0.06 0.06 0.06
0.03 0.02 0.01 0.01 0.00 0.00 0.00 0.00 0.00 0.00 0.00 0.00 0.00 0.00 0.00 0.00 0.00 0.00 0.00 0.00 0.00 0.00 0.00 0.00 0.00 0.00 0.00 0.00 0.00 0.00 0.00 0.00 0.00 0.00 0.01 0.02 0.03 0.03 0.03 0.03 0.03 0.03 0.04
0.01 0.01 0.01 0.01 0.01 0.01 0.00 0.00 0.00 0.00 0.00 0.00 0.00 0.00 0.00 0.00 0.00 0.00 0.00 0.00 0.00 0.00 0.00 0.00 0.00 0.00 0.00 0.00 0.00 0.00 0.00 0.00 0.00 0.00 0.00 0.01 0.01 0.01 0.02 0.02 0.02 0.03 0.03
0.00 0.00 0.01 0.02 0.03 0.02 0.01 0.00 0.00 0.00 0.00 0.00 0.00 0.00 0.00 0.00 0.00 0.00 0.00 0.00 0.00 0.00 0.00 0.00 0.00 0.00 0.00 0.00 0.00 0.00 0.00 0.00 0.00 0.00 0.00 0.00 0.00 0.00 0.00 0.01 0.02 0.02 0.03
0.01 0.01 0.02 0.05 0.05 0.02 0.01 0.00 0.00 0.00 0.00 0.00 0.00 0.00 0.00 0.00 0.00 0.00 0.00 0.00 0.00 0.00 0.00 0.00 0.00 0.00 0.00 0.00 0.00 0.00 0.00 0.00 0.00 0.00 0.00 0.00 0.00 0.00 0.00 0.00 0.01 0.01 0.02
MSLP
1013.67 1013.21 1012.84 1012.65 1012.68 1012.91 1013.29 1013.76 1014.22 1014.61 1014.89 1015.06 1015.14 1015.20 1015.27 1015.40 1015.58 1015.82 1016.07 1016.29 1016.46 1016.56 1016.61 1016.62 1016.62 1016.65 1016.71 1016.79 1016.89 1016.98 1017.04 1017.05 1017.04 1017.01 1016.99 1017.02 1017.10 1017.22 1017.39 1017.55 1017.70 1017.81 1017.88
1013.59 1013.29 1013.05 1012.94 1012.99 1013.20 1013.52 1013.91 1014.30 1014.64 1014.90 1015.08 1015.21 1015.32 1015.44 1015.61 1015.82 1016.06 1016.29 1016.49 1016.63 1016.71 1016.75 1016.76 1016.78 1016.81 1016.87 1016.95 1017.04 1017.10 1017.14 1017.15 1017.14 1017.13 1017.15 1017.21 1017.33 1017.49 1017.68 1017.86 1018.01 1018.12 1018.19
1013.40 1013.28 1013.19 1013.18 1013.28 1013.49 1013.77 1014.10 1014.43 1014.72 1014.96 1015.15 1015.30 1015.45 1015.62 1015.80 1016.01 1016.23 1016.42 1016.59 1016.70 1016.77 1016.80 1016.83 1016.86 1016.91 1016.98 1017.06 1017.14 1017.20 1017.24 1017.25 1017.25 1017.27 1017.32 1017.42 1017.57 1017.76 1017.97 1018.17 1018.34 1018.46 1018.54
1013.15 1013.20 1013.27 1013.38 1013.55 1013.77 1014.04 1014.32 1014.60 1014.85 1015.07 1015.26 1015.43 1015.60 1015.77 1015.95 1016.14 1016.32 1016.47 1016.59 1016.67 1016.73 1016.77 1016.81 1016.87 1016.95 1017.04 1017.14 1017.22 1017.28 1017.33 1017.35 1017.38 1017.42 1017.50 1017.63 1017.81 1018.02 1018.24 1018.46 1018.64 1018.78 1018.88
1012.93 1013.12 1013.33 1013.55 1013.79 1014.05 1014.31 1014.56 1014.80 1015.01 1015.21 1015.38 1015.55 1015.72 1015.89 1016.05 1016.20 1016.33 1016.44 1016.52 1016.58 1016.63 1016.69 1016.76 1016.86 1016.96 1017.08 1017.19 1017.29 1017.36 1017.41 1017.46 1017.50 1017.57 1017.68 1017.83 1018.02 1018.24 1018.47 1018.69 1018.89 1019.05 1019.19
1012.82 1013.11 1013.41 1013.72 1014.03 1014.31 1014.57 1014.79 1014.99 1015.16 1015.33 1015.49 1015.65 1015.81 1015.96 1016.10 1016.21 1016.31 1016.37 1016.43 1016.48 1016.54 1016.62 1016.72 1016.85 1016.99 1017.13 1017.25 1017.36 1017.43 1017.49 1017.55 1017.61 1017.70 1017.83 1017.99 1018.18 1018.39 1018.62 1018.83 1019.04 1019.23 1019.40
1012.86 1013.20 1013.56 1013.93 1014.27 1014.55 1014.79 1014.98 1015.13 1015.27 1015.41 1015.55 1015.70 1015.86 1016.00 1016.12 1016.21 1016.27 1016.31 1016.35 1016.40 1016.48 1016.59 1016.72 1016.88 1017.04 1017.19 1017.32 1017.42 1017.50 1017.56 1017.62 1017.70 1017.80 1017.93 1018.09 1018.27 1018.47 1018.68 1018.89 1019.10 1019.30 1019.51
1013.09 1013.42 1013.80 1014.18 1014.51 1014.78 1014.98 1015.12 1015.23 1015.32 1015.43 1015.57 1015.72 1015.87 1016.02 1016.13 1016.21 1016.26 1016.30 1016.33 1016.39 1016.48 1016.61 1016.77 1016.95 1017.12 1017.27 1017.39 1017.48 1017.54 1017.60 1017.66 1017.74 1017.84 1017.98 1018.13 1018.30 1018.48 1018.67 1018.86 1019.07 1019.28 1019.51
1013.47 1013.78 1014.13 1014.49 1014.78 1015.00 1015.14 1015.22 1015.27 1015.33 1015.42 1015.55 1015.72 1015.89 1016.05 1016.18 1016.26 1016.31 1016.34 1016.38 1016.44 1016.54 1016.69 1016.86 1017.04 1017.21 1017.35 1017.45 1017.52 1017.56 1017.60 1017.66 1017.74 1017.84 1017.98 1018.13 1018.28 1018.45 1018.61 1018.79 1018.98 1019.20 1019.44
1013.94 1014.21 1014.53 1014.84 1015.08 1015.22 1015.29 1015.30 1015.29 1015.32 1015.40 1015.54 1015.72 1015.93 1016.12 1016.27 1016.37 1016.43 1016.45 1016.49 1016.55 1016.65 1016.79 1016.95 1017.12 1017.28 1017.40 1017.48 1017.53 1017.55 1017.58 1017.63 1017.70 1017.81 1017.95 1018.09 1018.24 1018.40 1018.55 1018.71 1018.89 1019.10 1019.34
1014.42 1014.66 1014.95 1015.20 1015.38 1015.45 1015.44 1015.38 1015.32 1015.32 1015.39 1015.55 1015.77 1016.02 1016.24 1016.42 1016.54 1016.60 1016.62 1016.64 1016.68 1016.76 1016.88 1017.03 1017.19 1017.32 1017.42 1017.48 1017.51 1017.52 1017.54 1017.58 1017.66 1017.77 1017.90 1018.05 1018.20 1018.34 1018.49 1018.64 1018.81 1019.02 1019.26
1014.81 1015.06 1015.33 1015.55 1015.66 1015.67 1015.59 1015.47 1015.38 1015.36 1015.44 1015.62 1015.88 1016.16 1016.42 1016.63 1016.75 1016.81 1016.82 1016.82 1016.83 1016.88 1016.97 1017.09 1017.22 1017.33 1017.42 1017.46 1017.48 1017.49 1017.50 1017.54 1017.61 1017.71 1017.85 1017.99 1018.14 1018.28 1018.43 1018.58 1018.76 1018.96 1019.20
1015.06 1015.34 1015.62 1015.82 1015.90 1015.86 1015.74 1015.59 1015.47 1015.44 1015.54 1015.75 1016.04 1016.35 1016.64 1016.87 1017.00 1017.05 1017.04 1017.01 1016.98 1017.00 1017.05 1017.13 1017.24 1017.33 1017.41 1017.45 1017.46 1017.47 1017.47 1017.50 1017.56 1017.66 1017.78 1017.91 1018.05 1018.20 1018.35 1018.51 1018.70 1018.90 1019.14
1015.15 1015.48 1015.79 1016.00 1016.07 1016.01 1015.87 1015.71 1015.59 1015.58 1015.69 1015.92 1016.24 1016.58 1016.88 1017.12 1017.25 1017.29 1017.26 1017.20 1017.14 1017.12 1017.13 1017.19 1017.27 1017.35 1017.41 1017.45 1017.47 1017.47 1017.47 1017.48 1017.52 1017.59 1017.68 1017.79 1017.91 1018.05 1018.20 1018.38 1018.57 1018.80 1019.04
1015.08 1015.47 1015.82 1016.05 1016.14 1016.10 1015.97 1015.83 1015.73 1015.74 1015.87 1016.12 1016.45 1016.80 1017.11 1017.34 1017.47 1017.51 1017.47 1017.39 1017.31 1017.26 1017.25 1017.28 1017.34 1017.41 1017.46 1017.50 1017.51 1017.51 1017.49 1017.47 1017.47 1017.49 1017.53 1017.59 1017.68 1017.80 1017.95 1018.12 1018.34 1018.58 1018.84
1014.92 1015.35 1015.73 1015.98 1016.11 1016.10 1016.03 1015.93 1015.88 1015.92 1016.07 1016.33 1016.65 1016.99 1017.29 1017.51 1017.64 1017.68 1017.65 1017.57 1017.49 1017.44 1017.42 1017.43 1017.47 1017.53 1017.57 1017.60 1017.60 1017.58 1017.53 1017.47 1017.41 1017.36 1017.33 1017.32 1017.36 1017.43 1017.55 1017.73 1017.95 1018.21 1018.50
1014.73 1015.17 1015.55 1015.84 1016.00 1016.06 1016.05 1016.02 1016.03 1016.11 1016.28 1016.53 1016.82 1017.13 1017.40 1017.61 1017.74 1017.80 1017.79 1017.74 1017.68 1017.64 1017.63 1017.64 1017.67 1017.70 1017.73 1017.74 1017.72 1017.67 1017.59 1017.48 1017.35 1017.22 1017.10 1017.01 1016.97 1016.98 1017.06 1017.22 1017.43 1017.70 1018.00
1014.59 1014.99 1015.35 1015.65 1015.85 1015.98 1016.06 1016.12 1016.19 1016.31 1016.49 1016.72 1016.97 1017.22 1017.45 1017.64 1017.77 1017.84 1017.87 1017.88 1017.87 1017.86 1017.86 1017.88 1017.90 1017.92 1017.92 1017.91 1017.87 1017.78 1017.66 1017.51 1017.32 1017.11 1016.90 1016.72 1016.59 1016.52 1016.54 1016.65 1016.84 1017.09 1017.38
1014.54 1014.86 1015.18 1015.47 1015.71 1015.92 1016.09 1016.24 1016.39 1016.55 1016.72 1016.91 1017.10 1017.28 1017.45 1017.60 1017.73 1017.83 1017.91 1017.97 1018.02 1018.07 1018.10 1018.12 1018.14 1018.14 1018.12 1018.08 1018.01 1017.91 1017.77 1017.58 1017.34 1017.07 1016.79 1016.52 1016.30 1016.14 1016.08 1016.12 1016.25 1016.47 1016.73
1014.58 1014.81 1015.06 1015.33 1015.61 1015.89 1016.15 1016.40 1016.62 1016.82 1016.98 1017.12 1017.23 1017.33 1017.43 1017.53 1017.64 1017.76 1017.89 1018.02 1018.14 1018.23 1018.30 1018.34 1018.35 1018.33 1018.29 1018.24 1018.16 1018.05 1017.91 1017.71 1017.46 1017.15 1016.82 1016.48 1016.18 1015.93 1015.78 1015.73 1015.78 1015.93 1016.14
1014.71 1014.83 1015.00 1015.25 1015.56 1015.90 1016.26 1016.60 1016.90 1017.13 1017.28 1017.36 1017.38 1017.39 1017.40 1017.44 1017.52 1017.66 1017.83 1018.01 1018.19 1018.34 1018.44 1018.49 1018.50 1018.48 1018.43 1018.37 1018.30 1018.21 1018.09 1017.91 1017.68 1017.38 1017.03 1016.65 1016.28 1015.95 1015.70 1015.55 1015.50 1015.55 1015.68
1014.87 1014.88 1014.99 1015.21 1015.54 1015.95 1016.40 1016.83 1017.19 1017.45 1017.58 1017.61 1017.56 1017.47 1017.39 1017.36 1017.41 1017.54 1017.74 1017.97 1018.19 1018.38 1018.51 1018.58 1018.59 1018.56 1018.51 1018.46 1018.42 1018.37 1018.30 1018.18 1018.00 1017.74 1017.41 1017.02 1016.60 1016.21 1015.86 1015.60 1015.44 1015.38 1015.39
1014.98 1014.91 1014.97 1015.17 1015.52 1015.99 1016.51 1017.02 1017.44 1017.73 1017.87 1017.85 1017.73 1017.56 1017.41 1017.32 1017.33 1017.44 1017.65 1017.90 1018.15 1018.37 1018.51 1018.59 1018.60 1018.57 1018.53 1018.51 1018.50 1018.51 1018.51 1018.48 1018.37 1018.18 1017.89 1017.51 1017.08 1016.64 1016.22 1015.86 1015.58 1015.39 1015.29
1014.99 1014.88 1014.90 1015.10 1015.46 1015.97 1016.55 1017.12 1017.60 1017.93 1018.07 1018.04 1017.88 1017.65 1017.44 1017.30 1017.27 1017.37 1017.56 1017.82 1018.08 1018.30 1018.45 1018.53 1018.54 1018.52 1018.49 1018.49 1018.53 1018.61 1018.68 1018.73 1018.72 1018.60 1018.37 1018.03 1017.61 1017.14 1016.67 1016.22 1015.85 1015.55 1015.33
1014.87 1014.75 1014.75 1014.95 1015.33 1015.86 1016.48 1017.10 1017.63 1017.99 1018.16 1018.13 1017.96 1017.71 1017.47 1017.30 1017.24 1017.31 1017.49 1017.73 1017.98 1018.20 1018.34 1018.41 1018.42 1018.40 1018.39 1018.41 1018.49 1018.62 1018.76 1018.88 1018.94 1018.90 1018.74 1018.45 1018.05 1017.58 1017.08 1016.59 1016.14 1015.75 1015.44
1014.61 1014.50 1014.52 1014.71 1015.10 1015.64 1016.28 1016.92 1017.48 1017.88 1018.08 1018.09 1017.94 1017.70 1017.46 1017.28 1017.21 1017.26 1017.42 1017.64 1017.87 1018.06 1018.19 1018.25 1018.25 1018.22 1018.22 1018.26 1018.36 1018.51 1018.70 1018.87 1018.99 1019.00 1018.90 1018.66 1018.30 1017.86 1017.36 1016.85 1016.37 1015.93 1015.56
Thickness
5798 5799 5798 5797 5796 5794 5792 5790 5788 5786 5784 5782 5780 5778 5776 5774 5772 5771 5769 5768 5767 5765 5764 5763 5762 5760 5759 5759 5757 5756 5755 5754 5752 5751 5749 5748 5747 5746 5744 5743 5742 5741 5740
5803 5800 5798 5796 5794 5792 5790 5789 5787 5784 5782 5780 5778 5776 5774 5772 5771 5769 5768 5766 5765 5764 5762 5761 5760 5759 5758 5757 5756 5755 5754 5753 5751 5750 5749 5747 5746 5744 5743 5742 5741 5739 5739
5803 5799 5796 5795 5793 5791 5789 5787 5785 5783 5781 5778 5776 5774 5772 5771 5769 5768 5766 5765 5763 5762 5761 5759 5758 5757 5756 5756 5755 5753 5752 5751 5750 5748 5747 5746 5745 5743 5742 5740 5739 5738 5737
5801 5797 5794 5793 5791 5789 5787 5785 5783 5781 5779 5777 5775 5773 5771 5769 5768 5766 5765 5763 5762 5760 5759 5758 5756 5755 5755 5754 5753 5752 5751 5750 5749 5747 5746 5745 5744 5742 5741 5739 5738 5737 5736
5797 5795 5792 5790 5789 5786 5784 5782 5780 5778 5776 5774 5772 5770 5769 5767 5766 5764 5762 5761 5759 5758 5757 5755 5754 5753 5752 5751 5751 5750 5749 5748 5747 5747 5745 5744 5743 5741 5740 5739 5737 5736 5735
5794 5792 5790 5788 5786 5784 5782 5780 5778 5776 5774 5772 5770 5768 5767 5765 5763 5762 5760 5759 5757 5755 5754 5752 5751 5751 5750 5749 5748 5747 5747 5746 5746 5745 5744 5743 5741 5740 5739 5738 5736 5735 5734
5791 5789 5787 5786 5783 5781 5779 5777 5775 5773 5772 5770 5768 5766 5764 5763 5761 5759 5758 5756 5754 5753 5751 5749 5748 5747 5747 5746 5746 5745 5745 5744 5745 5744 5743 5741 5741 5740 5738 5736 5735 5734 5733
5789 5786 5784 5782 5780 5778 5776 5775 5772 5771 5769 5767 5765 5763 5761 5759 5758 5756 5755 5753 5751 5750 5748 5747 5745 5744 5744 5744 5743 5743 5743 5742 5742 5742 5741 5740 5740 5739 5737 5735 5734 5732 5732
5786 5783 5782 5780 5778 5775 5774 5772 5770 5768 5766 5764 5762 5760 5758 5756 5755 5753 5752 5750 5748 5746 5745 5743 5742 5741 5740 5740 5740 5740 5740 5740 5739 5739 5739 5738 5738 5737 5736 5734 5732 5731 5730
5781 5780 5778 5777 5775 5773 5771 5769 5767 5765 5762 5760 5758 5757 5755 5753 5752 5750 5749 5747 5745 5743 5741 5740 5739 5738 5737 5736 5736 5736 5737 5737 5737 5737 5736 5735 5735 5734 5733 5732 5731 5730 5728
5775 5776 5775 5773 5772 5770 5768 5766 5764 5761 5759 5756 5754 5753 5751 5749 5748 5747 5746 5744 5742 5740 5738 5736 5735 5735 5734 5733 5733 5733 5733 5734 5734 5734 5733 5733 5732 5731 5731 5730 5729 5728 5727
5769 5771 5772 5771 5769 5767 5765 5763 5761 5758 5755 5753 5751 5749 5747 5745 5744 5743 5742 5740 5739 5737 5735 5734 5732 5731 5730 5730 5729 5729 5729 5730 5731 5731 5731 5731 5730 5729 5728 5728 5728 5727 5726
5768 5769 5770 5768 5767 5765 5762 5760 5757 5755 5752 5749 5747 5745 5744 5742 5740 5739 5738 5736 5735 5733 5731 5730 5728 5727 5727 5726 5726 5725 5726 5727 5727 5727 5728 5728 5727 5727 5726 5726 5726 5725 5724
5766 5767 5767 5767 5765 5762 5759 5757 5754 5751 5748 5746 5743 5742 5740 5737 5735 5734 5733 5732 5730 5728 5727 5725 5724 5724 5723 5723 5723 5722 5722 5722 5723 5724 5724 5725 5725 5725 5723 5723 5723 5723 5723
5762 5763 5763 5764 5761 5759 5756 5753 5751 5748 5745 5743 5740 5738 5736 5733 5731 5730 5728 5727 5725 5724 5723 5722 5721 5720 5720 5719 5719 5719 5719 5719 5719 5720 5721 5721 5722 5721 5722 5722 5721 5721 5721
5760 5760 5760 5759 5758 5755 5752 5750 5747 5745 5742 5739 5737 5734 5732 5730 5728 5726 5724 5722 5721 5720 5719 5718 5718 5717 5716 5716 5715 5716 5716 5716 5716 5716 5717 5718 5719 5719 5720 5720 5720 5719 5720
5757 5758 5756 5754 5753 5752 5749 5747 5744 5742 5739 5736 5733 5731 5728 5726 5724 5722 5719 5717 5716 5716 5715 5715 5714 5713 5712 5712 5712 5713 5714 5714 5714 5714 5715 5716 5717 5718 5718 5719 5718 5718 5718
5756 5754 5753 5752 5749 5748 5746 5744 5741 5738 5735 5733 5730 5727 5725 5722 5720 5718 5715 5713 5712 5711 5710 5709 5708 5707 5706 5706 5707 5709 5710 5711 5711 5712 5713 5714 5715 5716 5717 5717 5717 5717 5717
5753 5751 5749 5748 5746 5745 5743 5741 5738 5735 5732 5729 5727 5724 5721 5719 5716 5714 5711 5709 5708 5706 5705 5704 5702 5701 5700 5700 5702 5705 5706 5707 5708 5710 5711 5712 5714 5715 5715 5715 5715 5715 5715
5749 5748 5747 5745 5744 5742 5740 5737 5734 5731 5728 5726 5723 5721 5718 5716 5713 5710 5707 5705 5704 5702 5700 5698 5697 5697 5696 5696 5698 5699 5701 5703 5705 5706 5708 5710 5711 5712 5712 5713 5713 5713 5713
5745 5745 5743 5741 5740 5739 5735 5732 5728 5725 5724 5722 5720 5718 5715 5712 5710 5707 5704 5702 5700 5697 5695 5694 5693 5691 5690 5691 5690 5690 5694 5698 5700 5702 5704 5706 5707 5708 5709 5709 5710 5710 5711
5742 5742 5740 5739 5738 5737 5735 5731 5729 5725 5722 5720 5717 5714 5712 5710 5707 5705 5702 5699 5697 5694 5691 5690 5688 5685 5684 5685 5682 5679 5678 5683 5690 5696 5697 5699 5701 5703 5704 5705 5706 5707 5708
5740 5741 5741 5738 5737 5735 5733 5730 5727 5722 5718 5715 5712 5710 5709 5708 5706 5703 5700 5697 5694 5691 5688 5686 5684 5681 5678 5679 5678 5674 5669 5667 5674 5683 5687 5690 5692 5695 5697 5699 5701 5702 5703
5741 5742 5740 5738 5736 5734 5732 5729 5723 5717 5712 5711 5710 5708 5707 5705 5703 5701 5698 5695 5691 5688 5685 5683 5681 5678 5675 5672 5672 5672 5669 5667 5664 5666 5675 5680 5683 5686 5688 5691 5693 5695 5697
5744 5742 5739 5737 5735 5734 5731 5728 5722 5717 5713 5710 5708 5706 5704 5703 5701 5699 5696 5692 5689 5685 5683 5680 5678 5675 5672 5669 5666 5666 5665 5663 5662 5658 5659 5665 5671 5676 5679 5682 5685 5687 5690
5744 5742 5740 5736 5734 5733 5730 5726 5722 5716 5712 5709 5706 5703 5701 5700 5698 5696 5693 5689 5686 5683 5680 5677 5675 5672 5669 5666 5663 5660 5658 5655 5654 5652 5651 5652 5656 5664 5670 5673 5676 5679 5682